Orbital Elements at Epoch 2459000.5 (2020-May-31.0) TDB
Reference: JPL 19 (heliocentric ecliptic J2000)
Element | Value | Uncertainty (1-sigma) | Units |
e | .09601335663290812 | 5.121e-08 | |
a | 2.587870323519573 | 1.4307e-08 | au |
q | 2.339400207227769 | 1.4072e-07 | au |
i | 1.59920252497689 | 4.5033e-06 | deg |
node | .3983585399977233 | 0.00011973 | deg |
peri | 12.44193400770237 | 0.00012135 | deg |
M | 303.2175241466375 | 1.9438e-05 | deg |
tp | 2459240.341325954070 (2021-Jan-25.84132595) | 8.2403e-05 | TDB |
period | 1520.590218123648 4.16 | 1.261e-05 3.452e-08 | d yr |
n | .2367501748394953 | 1.9633e-09 | deg/d |
Q | 2.836340439811377 | 1.5681e-08 | au |
|
| | Orbit Determination Parameters
Additional Information
|